BAW1 EGLL-KBOS

Flight info

Callsign BAW1
Flight time 3h 23m
Altitude 36000
Route CPT L9 BUCGO DCT FELCA DCT NICXI DCT BAKUR DCT DOGAL/M078F370 NATD NEEKO/N0446F380 N616B TOPPS DCT AJJAY OOSHN5
Aircraft CONC/H-SDE2E3FGHIRYW/X

Departure

Time 2026-05-05 14:59
Airport London Heathrow Airport (EGLL)

Arrival

Time 2026-05-05 18:22
Airport Boston Logan International Airport (KBOS)
Time Latitude Longitude Altitude Speed Heading
2026-05-05 14:26 51.46068 -0.44794 97 ft 0 kts 131°
2026-05-05 14:45 51.46070 -0.44798 97 ft 3 kts 131°
2026-05-05 14:45 51.46088 -0.44830 97 ft 3 kts 131°
2026-05-05 14:46 51.46106 -0.44851 96 ft 4 kts 113°
2026-05-05 14:46 51.46123 -0.44878 94 ft 4 kts 79°
2026-05-05 14:46 51.46125 -0.44915 96 ft 4 kts 49°
2026-05-05 14:46 51.46108 -0.44948 97 ft 4 kts 41°
2026-05-05 14:47 51.46100 -0.44958 97 ft 1 kts 42°
2026-05-05 14:50 51.46105 -0.44952 97 ft 3 kts 42°
2026-05-05 14:50 51.46129 -0.44916 96 ft 7 kts 42°
2026-05-05 14:50 51.46175 -0.44850 96 ft 11 kts 41°
2026-05-05 14:50 51.46242 -0.44757 93 ft 14 kts 39°
2026-05-05 14:51 51.46313 -0.44780 95 ft 11 kts 288°
2026-05-05 14:51 51.46318 -0.44920 95 ft 14 kts 270°
2026-05-05 14:51 51.46319 -0.45082 95 ft 15 kts 270°
2026-05-05 14:51 51.46320 -0.45262 95 ft 17 kts 270°
2026-05-05 14:52 51.46318 -0.45458 95 ft 18 kts 269°
2026-05-05 14:52 51.46323 -0.45668 94 ft 19 kts 275°
2026-05-05 14:52 51.46325 -0.45887 94 ft 20 kts 269°
2026-05-05 14:52 51.46323 -0.46121 94 ft 22 kts 269°
2026-05-05 14:53 51.46321 -0.46366 94 ft 23 kts 269°
2026-05-05 14:53 51.46320 -0.46612 95 ft 20 kts 269°
2026-05-05 14:53 51.46320 -0.46815 95 ft 16 kts 270°
2026-05-05 14:53 51.46321 -0.46975 95 ft 12 kts 270°
2026-05-05 14:54 51.46322 -0.47090 94 ft 8 kts 270°
2026-05-05 14:54 51.46322 -0.47164 93 ft 5 kts 270°
2026-05-05 14:54 51.46322 -0.47242 95 ft 9 kts 270°
2026-05-05 14:54 51.46327 -0.47358 95 ft 12 kts 279°
2026-05-05 14:55 51.46340 -0.47506 92 ft 15 kts 270°
2026-05-05 14:55 51.46320 -0.47680 95 ft 18 kts 248°
2026-05-05 14:55 51.46261 -0.47869 96 ft 20 kts 250°
2026-05-05 14:55 51.46252 -0.48099 93 ft 23 kts 270°
2026-05-05 14:56 51.46252 -0.48378 90 ft 27 kts 270°
2026-05-05 14:56 51.46276 -0.48668 93 ft 25 kts 299°
2026-05-05 14:56 51.46405 -0.48753 95 ft 17 kts 358°
2026-05-05 14:56 51.46474 -0.48670 95 ft 10 kts 76°
2026-05-05 14:57 51.46474 -0.48648 96 ft 0 kts 90°
2026-05-05 14:58 51.46474 -0.48631 96 ft 18 kts 90°
2026-05-05 14:58 51.46476 -0.47812 93 ft 129 kts 89°
2026-05-05 14:58 51.46485 -0.45821 94 ft 224 kts 90°
2026-05-05 14:59 51.46541 -0.43069 1225 ft 264 kts 85°
2026-05-05 14:59 51.46416 -0.39939 2153 ft 304 kts 112°
2026-05-05 14:59 51.45267 -0.37175 2952 ft 279 kts 144°
2026-05-05 14:59 51.43606 -0.36122 3785 ft 256 kts 182°
2026-05-05 15:00 51.41888 -0.36870 4648 ft 262 kts 212°
2026-05-05 15:00 51.40927 -0.38040 5200 ft 263 kts 233°
2026-05-05 15:00 51.40126 -0.41695 5910 ft 277 kts 277°
2026-05-05 15:00 51.40648 -0.44649 6073 ft 278 kts 293°
2026-05-05 15:01 51.41428 -0.47480 6080 ft 278 kts 295°
2026-05-05 15:01 51.41977 -0.50353 6652 ft 266 kts 275°
2026-05-05 15:01 51.42055 -0.53343 7465 ft 274 kts 271°
2026-05-05 15:01 51.42103 -0.56561 8286 ft 306 kts 272°
2026-05-05 15:02 51.42193 -0.60158 9080 ft 337 kts 273°
2026-05-05 15:02 51.42425 -0.63895 9847 ft 337 kts 278°
2026-05-05 15:02 51.42807 -0.67615 10605 ft 341 kts 279°
2026-05-05 15:02 51.43189 -0.71393 11343 ft 346 kts 279°
2026-05-05 15:03 51.43624 -0.75146 12084 ft 349 kts 281°
2026-05-05 15:03 51.44122 -0.78973 12832 ft 352 kts 282°
2026-05-05 15:03 51.44651 -0.82833 13580 ft 357 kts 283°
2026-05-05 15:03 51.45168 -0.86751 14330 ft 362 kts 281°
2026-05-05 15:04 51.45644 -0.90877 14770 ft 396 kts 280°
2026-05-05 15:04 51.46153 -0.95468 15064 ft 439 kts 280°
2026-05-05 15:04 51.46720 -1.00493 15362 ft 477 kts 280°
2026-05-05 15:04 51.47326 -1.05796 16267 ft 484 kts 280°
2026-05-05 15:05 51.48529 -1.16349 17897 ft 461 kts 281°
2026-05-05 15:05 51.49163 -1.21205 18648 ft 440 kts 283°
2026-05-05 15:05 51.49989 -1.25997 19416 ft 450 kts 287°
2026-05-05 15:06 51.50952 -1.30803 20178 ft 455 kts 288°
2026-05-05 15:06 51.51953 -1.35644 20947 ft 460 kts 288°
2026-05-05 15:06 51.52965 -1.40547 21717 ft 465 kts 288°
2026-05-05 15:06 51.53984 -1.45516 22468 ft 471 kts 288°
2026-05-05 15:07 51.55008 -1.50546 23234 ft 476 kts 288°
2026-05-05 15:07 51.56040 -1.55638 24004 ft 482 kts 288°
2026-05-05 15:07 51.57069 -1.60723 24768 ft 488 kts 288°
2026-05-05 15:07 51.58120 -1.65930 25520 ft 493 kts 288°
2026-05-05 15:08 51.59182 -1.71197 26283 ft 498 kts 288°
2026-05-05 15:08 51.60252 -1.76528 27045 ft 504 kts 288°
2026-05-05 15:08 51.61296 -1.81737 27782 ft 468 kts 287°
2026-05-05 15:08 51.62267 -1.86605 28513 ft 452 kts 287°
2026-05-05 15:09 51.63223 -1.91449 29224 ft 456 kts 264°
2026-05-05 15:09 51.64007 -1.96476 28485 ft 474 kts 269°
2026-05-05 15:09 51.64953 -2.01593 28719 ft 468 kts 289°
2026-05-05 15:09 51.65986 -2.06388 29604 ft 457 kts 290°
2026-05-05 15:10 51.67096 -2.11239 30447 ft 466 kts 289°
2026-05-05 15:10 51.68154 -2.16231 31252 ft 475 kts 288°
2026-05-05 15:10 51.69165 -2.21334 32025 ft 481 kts 287°
2026-05-05 15:10 51.70167 -2.26506 32785 ft 487 kts 287°
2026-05-05 15:11 51.71184 -2.31765 33552 ft 496 kts 287°
2026-05-05 15:11 51.72216 -2.37092 34288 ft 499 kts 287°
2026-05-05 15:11 51.73256 -2.42464 35041 ft 506 kts 287°
2026-05-05 15:11 51.74297 -2.47848 35787 ft 513 kts 287°
2026-05-05 15:12 51.75364 -2.53381 36532 ft 520 kts 287°
2026-05-05 15:12 51.76351 -2.59032 37293 ft 526 kts 283°
2026-05-05 15:12 51.77048 -2.64850 38068 ft 530 kts 277°
2026-05-05 15:12 51.77481 -2.70779 38819 ft 534 kts 276°
2026-05-05 15:13 51.77873 -2.76755 39572 ft 537 kts 275°
2026-05-05 15:13 51.78252 -2.82850 39721 ft 553 kts 275°
2026-05-05 15:13 51.78639 -2.89097 39809 ft 565 kts 276°
2026-05-05 15:13 51.79030 -2.95405 39912 ft 578 kts 276°
2026-05-05 15:14 51.79436 -3.01955 40053 ft 595 kts 276°
2026-05-05 15:14 51.79851 -3.08707 40218 ft 614 kts 276°
2026-05-05 15:14 51.80274 -3.15668 40361 ft 631 kts 275°
2026-05-05 15:14 51.80705 -3.22816 40494 ft 647 kts 275°
2026-05-05 15:15 51.81141 -3.30145 40622 ft 663 kts 275°
2026-05-05 15:15 51.81583 -3.37638 40743 ft 678 kts 275°
2026-05-05 15:15 51.82031 -3.45321 40875 ft 694 kts 275°
2026-05-05 15:15 51.82547 -3.53161 40992 ft 709 kts 279°
2026-05-05 15:16 51.83465 -3.60956 41149 ft 723 kts 281°
2026-05-05 15:16 51.84476 -3.69007 41288 ft 738 kts 282°
2026-05-05 15:16 51.85533 -3.77199 41413 ft 752 kts 282°
2026-05-05 15:16 51.86611 -3.85557 41543 ft 765 kts 282°
2026-05-05 15:17 51.87699 -3.94066 41667 ft 780 kts 282°
2026-05-05 15:17 51.88800 -4.02748 41786 ft 796 kts 281°
2026-05-05 15:17 51.89918 -4.11625 41922 ft 814 kts 281°
2026-05-05 15:17 51.91055 -4.20714 42037 ft 833 kts 281°
2026-05-05 15:18 51.92210 -4.30017 42151 ft 852 kts 281°
2026-05-05 15:18 51.93385 -4.39547 42284 ft 875 kts 281°
2026-05-05 15:18 51.94569 -4.49221 42408 ft 899 kts 281°
2026-05-05 15:18 51.95789 -4.59255 42736 ft 913 kts 281°
2026-05-05 15:19 51.97013 -4.69410 43029 ft 924 kts 281°
2026-05-05 15:19 51.98242 -4.79679 43325 ft 931 kts 281°
2026-05-05 15:19 51.99473 -4.90044 43569 ft 940 kts 281°
2026-05-05 15:19 52.00706 -5.00496 43819 ft 944 kts 281°
2026-05-05 15:20 52.02440 -5.10796 44070 ft 952 kts 291°
2026-05-05 15:20 52.05281 -5.20530 44454 ft 959 kts 301°
2026-05-05 15:20 52.08968 -5.29470 44772 ft 972 kts 306°
2026-05-05 15:20 52.13020 -5.38347 45132 ft 982 kts 307°
2026-05-05 15:21 52.16882 -5.47562 45555 ft 991 kts 299°
2026-05-05 15:21 52.20279 -5.57408 45952 ft 1002 kts 301°
2026-05-05 15:21 52.23843 -5.67252 46277 ft 1013 kts 298°
2026-05-05 15:21 52.26754 -5.77767 46664 ft 1022 kts 289°
2026-05-05 15:22 52.29094 -5.88787 46937 ft 1032 kts 290°
2026-05-05 15:22 52.31643 -5.99798 47181 ft 1042 kts 290°
2026-05-05 15:22 52.34215 -6.10944 47432 ft 1051 kts 291°
2026-05-05 15:22 52.36780 -6.22000 47689 ft 1058 kts 290°
2026-05-05 15:23 52.39390 -6.33313 47919 ft 1066 kts 290°
2026-05-05 15:23 52.42003 -6.44706 48137 ft 1073 kts 290°
2026-05-05 15:23 52.44626 -6.56210 48341 ft 1080 kts 290°
2026-05-05 15:23 52.47246 -6.67765 48506 ft 1085 kts 290°
2026-05-05 15:24 52.49873 -6.79419 48658 ft 1090 kts 290°
2026-05-05 15:24 52.55076 -7.02697 48760 ft 1095 kts 290°
2026-05-05 15:25 52.60282 -7.26255 48776 ft 1097 kts 290°
2026-05-05 15:25 52.65453 -7.49917 48845 ft 1102 kts 289°
2026-05-05 15:25 52.68033 -7.61831 49022 ft 1106 kts 289°
2026-05-05 15:26 52.70613 -7.73808 49273 ft 1111 kts 289°
2026-05-05 15:26 52.73191 -7.85849 49470 ft 1116 kts 289°
2026-05-05 15:26 52.75764 -7.97938 49601 ft 1119 kts 289°
2026-05-05 15:27 52.80865 -8.22122 49698 ft 1124 kts 289°
2026-05-05 15:27 52.85956 -8.46552 49600 ft 1124 kts 289°
2026-05-05 15:28 52.90978 -8.70944 49355 ft 1115 kts 289°
2026-05-05 15:28 52.93459 -8.83111 49195 ft 1113 kts 288°
2026-05-05 15:28 52.95923 -8.95267 49155 ft 1109 kts 288°
2026-05-05 15:28 52.98331 -9.07215 48988 ft 1107 kts 288°
2026-05-05 15:29 53.00757 -9.19335 49046 ft 1108 kts 288°
2026-05-05 15:29 53.03181 -9.31513 49239 ft 1112 kts 288°
2026-05-05 15:29 53.05601 -9.43749 49485 ft 1117 kts 288°
2026-05-05 15:29 53.08018 -9.56050 49726 ft 1121 kts 288°
2026-05-05 15:30 53.10429 -9.68401 49826 ft 1125 kts 288°
2026-05-05 15:30 53.15233 -9.93242 49888 ft 1127 kts 288°
2026-05-05 15:31 53.19960 -10.18009 49934 ft 1131 kts 287°
2026-05-05 15:31 53.24688 -10.43107 50208 ft 1138 kts 287°
2026-05-05 15:31 53.27044 -10.55745 50506 ft 1141 kts 287°
2026-05-05 15:32 53.29393 -10.68425 50741 ft 1139 kts 287°
2026-05-05 15:32 53.31712 -10.81034 50851 ft 1133 kts 287°
2026-05-05 15:32 53.34015 -10.93639 50920 ft 1131 kts 287°
2026-05-05 15:33 53.38572 -11.18838 50989 ft 1131 kts 287°
2026-05-05 15:33 53.43042 -11.43904 51017 ft 1131 kts 286°
2026-05-05 15:34 53.47497 -11.69235 51016 ft 1132 kts 286°
2026-05-05 15:34 53.51900 -11.94634 51014 ft 1133 kts 286°
2026-05-05 15:35 53.56250 -12.20085 51019 ft 1134 kts 286°
2026-05-05 15:35 53.60524 -12.45456 51016 ft 1134 kts 285°
2026-05-05 15:36 53.64771 -12.71045 51021 ft 1135 kts 285°
2026-05-05 15:36 53.68967 -12.96703 51014 ft 1136 kts 285°
2026-05-05 15:37 53.73110 -13.22430 51020 ft 1135 kts 285°
2026-05-05 15:37 53.77171 -13.48032 51013 ft 1136 kts 285°
2026-05-05 15:38 53.81205 -13.73867 51018 ft 1137 kts 284°
2026-05-05 15:38 53.85183 -13.99750 51021 ft 1136 kts 284°
2026-05-05 15:39 53.89110 -14.25704 51012 ft 1137 kts 284°
2026-05-05 15:39 53.92954 -14.51531 51012 ft 1138 kts 284°
2026-05-05 15:40 53.96767 -14.77571 51017 ft 1137 kts 284°
2026-05-05 15:40 54.00524 -15.03682 51027 ft 1137 kts 282°
2026-05-05 15:41 54.04026 -15.29911 51017 ft 1138 kts 282°
2026-05-05 15:41 54.07489 -15.56180 51022 ft 1137 kts 282°
2026-05-05 15:42 54.10874 -15.82313 51023 ft 1137 kts 282°
2026-05-05 15:42 54.14223 -16.08660 51022 ft 1138 kts 282°
2026-05-05 15:43 54.17518 -16.35062 51018 ft 1138 kts 282°
2026-05-05 15:43 54.19473 -16.61828 51069 ft 1137 kts 272°
2026-05-05 15:44 54.20833 -16.88560 51053 ft 1138 kts 275°
2026-05-05 15:44 54.22411 -17.15245 51043 ft 1137 kts 276°
2026-05-05 15:45 54.23947 -17.42160 51034 ft 1138 kts 275°
2026-05-05 15:45 54.25416 -17.69088 51026 ft 1138 kts 275°
2026-05-05 15:46 54.26825 -17.96049 51024 ft 1137 kts 275°
2026-05-05 15:46 54.28163 -18.22837 51023 ft 1138 kts 275°
2026-05-05 15:47 54.29450 -18.49830 51020 ft 1138 kts 274°
2026-05-05 15:47 54.30677 -18.76833 51020 ft 1137 kts 274°
2026-05-05 15:48 54.31844 -19.03869 51020 ft 1138 kts 274°
2026-05-05 15:48 54.32951 -19.30912 51009 ft 1139 kts 274°
2026-05-05 15:49 54.33989 -19.57780 51020 ft 1137 kts 274°
2026-05-05 15:49 54.34975 -19.84845 51016 ft 1138 kts 273°
2026-05-05 15:50 54.35900 -20.11930 51019 ft 1139 kts 273°
2026-05-05 15:50 54.36764 -20.39028 51019 ft 1138 kts 273°
2026-05-05 15:51 54.37563 -20.65964 51021 ft 1138 kts 272°
2026-05-05 15:51 54.38306 -20.93067 51021 ft 1139 kts 272°
2026-05-05 15:52 54.38989 -21.20195 51021 ft 1138 kts 272°
2026-05-05 15:52 54.39611 -21.47324 51020 ft 1138 kts 272°
2026-05-05 15:53 54.40172 -21.74481 51021 ft 1139 kts 272°
2026-05-05 15:53 54.40669 -22.01439 51015 ft 1137 kts 271°
2026-05-05 15:54 54.41108 -22.28588 51015 ft 1138 kts 271°
2026-05-05 15:54 54.41487 -22.55746 51013 ft 1138 kts 271°
2026-05-05 15:55 54.41805 -22.82933 51019 ft 1137 kts 271°
2026-05-05 15:55 54.42061 -23.09987 51018 ft 1138 kts 271°
2026-05-05 15:56 54.42257 -23.37156 51014 ft 1138 kts 270°
2026-05-05 15:56 54.42373 -23.59744 51024 ft 1138 kts 270°
2026-05-05 15:57 54.42458 -23.86961 51014 ft 1138 kts 270°
2026-05-05 15:57 54.42479 -24.18559 51022 ft 1137 kts 270°
2026-05-05 15:58 54.42443 -24.41342 51025 ft 1139 kts 270°
2026-05-05 15:58 54.42346 -24.68367 51014 ft 1137 kts 269°
2026-05-05 15:59 54.42186 -24.95547 51024 ft 1138 kts 269°
2026-05-05 15:59 54.41966 -25.22744 51025 ft 1138 kts 269°
2026-05-05 16:00 54.41684 -25.49932 51014 ft 1137 kts 269°
2026-05-05 16:00 54.41341 -25.77099 51021 ft 1138 kts 269°
2026-05-05 16:01 54.40940 -26.04104 51024 ft 1138 kts 268°
2026-05-05 16:01 54.40476 -26.31250 51022 ft 1138 kts 268°
2026-05-05 16:02 54.39951 -26.58426 51015 ft 1139 kts 268°
2026-05-05 16:02 54.39365 -26.85580 51014 ft 1137 kts 268°
2026-05-05 16:03 54.38718 -27.12748 51014 ft 1138 kts 267°
2026-05-05 16:03 54.38010 -27.39882 51018 ft 1138 kts 267°
2026-05-05 16:04 54.37246 -27.66835 51017 ft 1137 kts 267°
2026-05-05 16:04 54.36417 -27.93955 51014 ft 1138 kts 267°
2026-05-05 16:05 54.35527 -28.21057 51023 ft 1138 kts 266°
2026-05-05 16:05 54.34577 -28.48157 51014 ft 1138 kts 266°
2026-05-05 16:06 54.33564 -28.75269 51023 ft 1138 kts 266°
2026-05-05 16:06 54.32491 -29.02363 51020 ft 1138 kts 266°
2026-05-05 16:07 54.31365 -29.29258 51023 ft 1138 kts 265°
2026-05-05 16:07 54.30173 -29.56280 51027 ft 1138 kts 265°
2026-05-05 16:08 54.28920 -29.83315 51027 ft 1137 kts 265°
2026-05-05 16:08 54.27606 -30.10325 51022 ft 1138 kts 265°
2026-05-05 16:09 54.26231 -30.37340 51025 ft 1138 kts 265°
2026-05-05 16:09 54.24806 -30.64131 51024 ft 1137 kts 264°
2026-05-05 16:10 54.23312 -30.91100 51014 ft 1138 kts 264°
2026-05-05 16:10 54.21758 -31.18026 51019 ft 1138 kts 264°
2026-05-05 16:11 54.20144 -31.44939 51014 ft 1137 kts 264°
2026-05-05 16:12 54.16736 -31.98692 51020 ft 1138 kts 263°
2026-05-05 16:13 54.12150 -32.65636 51017 ft 1138 kts 263°
2026-05-05 16:13 54.10215 -32.92313 51023 ft 1138 kts 263°
2026-05-05 16:14 54.06171 -33.45579 51008 ft 1138 kts 262°
2026-05-05 16:15 54.01874 -33.98954 51018 ft 1139 kts 262°
2026-05-05 16:16 53.97359 -34.52008 51030 ft 1137 kts 261°
2026-05-05 16:17 53.93808 -34.91856 51032 ft 1137 kts 261°
2026-05-05 16:18 53.90126 -35.31619 51034 ft 1137 kts 261°
2026-05-05 16:19 53.86330 -35.71136 51040 ft 1137 kts 261°
2026-05-05 16:19 53.82386 -36.10770 51037 ft 1137 kts 260°
2026-05-05 16:20 53.76945 -36.63301 51036 ft 1137 kts 260°
2026-05-05 16:22 53.69795 -37.29008 51036 ft 1137 kts 259°
2026-05-05 16:23 53.63839 -37.81220 51036 ft 1137 kts 259°
2026-05-05 16:23 53.59206 -38.20427 51038 ft 1137 kts 258°
2026-05-05 16:24 53.56045 -38.46524 51036 ft 1137 kts 258°
2026-05-05 16:25 53.51200 -38.85571 51036 ft 1137 kts 258°
2026-05-05 16:25 53.46249 -39.24369 51036 ft 1138 kts 258°
2026-05-05 16:26 53.39425 -39.76167 51041 ft 1137 kts 257°
2026-05-05 16:27 53.35929 -40.02006 51036 ft 1138 kts 257°
2026-05-05 16:27 53.32401 -40.27633 51039 ft 1138 kts 257°
2026-05-05 16:28 53.28794 -40.53379 51036 ft 1137 kts 257°
2026-05-05 16:28 53.25130 -40.79101 51036 ft 1138 kts 256°
2026-05-05 16:29 53.21412 -41.04768 51037 ft 1138 kts 256°
2026-05-05 16:29 53.17665 -41.30213 51036 ft 1137 kts 256°
2026-05-05 16:30 53.13836 -41.55800 51037 ft 1138 kts 256°
2026-05-05 16:30 53.09953 -41.81332 51045 ft 1138 kts 256°
2026-05-05 16:31 53.06017 -42.06811 51036 ft 1137 kts 255°
2026-05-05 16:31 53.02024 -42.32258 51037 ft 1138 kts 255°
2026-05-05 16:32 52.98006 -42.57480 51037 ft 1138 kts 255°
2026-05-05 16:32 52.93905 -42.82834 51036 ft 1137 kts 255°
2026-05-05 16:33 52.89753 -43.08123 51037 ft 1138 kts 255°
2026-05-05 16:33 52.85575 -43.33201 51036 ft 1138 kts 254°
2026-05-05 16:34 52.81316 -43.58396 51036 ft 1137 kts 254°
2026-05-05 16:34 52.77002 -43.83550 51036 ft 1138 kts 254°
2026-05-05 16:35 52.72636 -44.08648 51040 ft 1138 kts 254°
2026-05-05 16:35 52.68215 -44.33709 51045 ft 1137 kts 253°
2026-05-05 16:36 52.63775 -44.58530 51036 ft 1138 kts 253°
2026-05-05 16:36 52.59253 -44.83463 51036 ft 1137 kts 253°
2026-05-05 16:37 52.54675 -45.08370 51036 ft 1137 kts 253°
2026-05-05 16:37 52.50046 -45.33216 51036 ft 1138 kts 253°
2026-05-05 16:38 52.45399 -45.57830 51036 ft 1137 kts 252°
2026-05-05 16:38 52.40665 -45.82579 51036 ft 1138 kts 252°
2026-05-05 16:39 52.35884 -46.07251 51036 ft 1138 kts 252°
2026-05-05 16:39 52.31049 -46.31887 51039 ft 1137 kts 252°
2026-05-05 16:40 52.26194 -46.56310 51036 ft 1138 kts 252°
2026-05-05 16:40 52.21261 -46.80820 51036 ft 1138 kts 252°
2026-05-05 16:41 52.16272 -47.05295 51036 ft 1137 kts 251°
2026-05-05 16:41 52.11233 -47.29718 51036 ft 1138 kts 251°
2026-05-05 16:42 52.06148 -47.54062 51040 ft 1138 kts 251°
2026-05-05 16:42 52.01042 -47.78212 51036 ft 1137 kts 251°
2026-05-05 16:43 51.95854 -48.02467 51042 ft 1138 kts 251°
2026-05-05 16:43 51.90616 -48.26656 51036 ft 1138 kts 250°
2026-05-05 16:44 51.85330 -48.50788 51042 ft 1137 kts 250°
2026-05-05 16:44 51.80029 -48.74711 51036 ft 1138 kts 250°
2026-05-05 16:45 51.74644 -48.98732 51036 ft 1138 kts 250°
2026-05-05 16:45 51.69211 -49.22693 51036 ft 1137 kts 250°
2026-05-05 16:46 51.63727 -49.46602 51036 ft 1138 kts 250°
2026-05-05 16:46 51.58200 -49.70439 51041 ft 1137 kts 249°
2026-05-05 16:47 51.52658 -49.94068 51041 ft 1138 kts 249°
2026-05-05 16:47 51.47031 -50.17801 51040 ft 1138 kts 249°
2026-05-05 16:48 51.41361 -50.41459 51036 ft 1137 kts 249°
2026-05-05 16:48 51.35636 -50.65083 51036 ft 1138 kts 249°
2026-05-05 16:49 51.29909 -50.88469 51043 ft 1138 kts 248°
2026-05-05 16:49 51.24090 -51.11973 51036 ft 1137 kts 248°
2026-05-05 16:50 51.18225 -51.35418 51036 ft 1138 kts 248°
2026-05-05 16:50 51.12319 -51.58781 51036 ft 1138 kts 248°
2026-05-05 16:51 51.06399 -51.81954 51039 ft 1137 kts 248°
2026-05-05 16:51 51.00396 -52.05216 51036 ft 1138 kts 248°
2026-05-05 16:52 50.94350 -52.28402 51045 ft 1137 kts 247°
2026-05-05 16:52 50.88253 -52.51550 51036 ft 1138 kts 247°
2026-05-05 16:53 50.82157 -52.74462 51045 ft 1138 kts 247°
2026-05-05 16:53 50.75971 -52.97483 51036 ft 1137 kts 247°
2026-05-05 16:54 50.69738 -53.20448 51036 ft 1138 kts 246°
2026-05-05 16:54 50.63466 -53.43330 51040 ft 1138 kts 246°
2026-05-05 16:55 50.57144 -53.66171 51043 ft 1137 kts 246°
2026-05-05 16:55 50.50823 -53.88785 51036 ft 1138 kts 246°
2026-05-05 16:56 50.44415 -54.11496 51038 ft 1138 kts 246°
2026-05-05 16:56 50.37959 -54.34155 51036 ft 1137 kts 246°
2026-05-05 16:57 50.31465 -54.56734 51036 ft 1138 kts 245°
2026-05-05 16:57 50.24968 -54.79112 51039 ft 1137 kts 245°
2026-05-05 16:58 50.18385 -55.01574 51036 ft 1138 kts 245°
2026-05-05 16:58 50.11758 -55.23978 51036 ft 1138 kts 245°
2026-05-05 16:59 50.05086 -55.46324 51040 ft 1137 kts 245°
2026-05-05 16:59 49.98416 -55.68463 51036 ft 1138 kts 245°
2026-05-05 17:00 49.91661 -55.90681 51037 ft 1141 kts 244°
2026-05-05 17:00 49.84844 -56.12899 51037 ft 1141 kts 244°
2026-05-05 17:01 49.77985 -56.35055 51036 ft 1141 kts 244°
2026-05-05 17:01 49.71125 -56.57013 51037 ft 1142 kts 244°
2026-05-05 17:02 49.64176 -56.79063 51038 ft 1141 kts 244°
2026-05-05 17:02 49.57200 -57.01003 51038 ft 1143 kts 244°
2026-05-05 17:03 49.50173 -57.22909 51044 ft 1139 kts 244°
2026-05-05 17:03 49.43142 -57.44639 51037 ft 1145 kts 243°
2026-05-05 17:04 49.36009 -57.66493 51038 ft 1141 kts 243°
2026-05-05 17:04 49.28858 -57.88215 51038 ft 1143 kts 243°
2026-05-05 17:05 49.21643 -58.09942 51040 ft 1146 kts 243°
2026-05-05 17:05 49.14473 -58.31353 51038 ft 1138 kts 243°
2026-05-05 17:06 49.07209 -58.52862 51038 ft 1138 kts 243°
2026-05-05 17:06 48.99919 -58.74265 51038 ft 1139 kts 242°
2026-05-05 17:07 48.92586 -58.95620 51040 ft 1137 kts 242°
2026-05-05 17:07 48.85212 -59.16914 51040 ft 1138 kts 242°
2026-05-05 17:08 48.77857 -59.37980 51042 ft 1138 kts 242°
2026-05-05 17:08 48.70405 -59.59150 51038 ft 1138 kts 242°
2026-05-05 17:09 48.62922 -59.80234 51036 ft 1139 kts 242°
2026-05-05 17:09 48.55448 -60.01130 51036 ft 1137 kts 242°
2026-05-05 17:10 48.47882 -60.22106 51040 ft 1138 kts 241°
2026-05-05 17:10 48.40287 -60.43001 51039 ft 1138 kts 241°
2026-05-05 17:11 48.32647 -60.63852 51040 ft 1138 kts 241°
2026-05-05 17:11 48.24970 -60.84636 51036 ft 1138 kts 241°
2026-05-05 17:12 48.17313 -61.05207 51045 ft 1137 kts 240°
2026-05-05 17:12 48.09561 -61.25870 51036 ft 1138 kts 240°
2026-05-05 17:13 48.01779 -61.46453 51036 ft 1138 kts 240°
2026-05-05 17:13 47.94006 -61.66857 51041 ft 1137 kts 240°
2026-05-05 17:14 47.86145 -61.87329 51043 ft 1138 kts 240°
2026-05-05 17:14 47.78255 -62.07726 51036 ft 1137 kts 240°
2026-05-05 17:15 47.70320 -62.28080 51036 ft 1138 kts 240°
2026-05-05 17:15 47.62353 -62.48363 51040 ft 1138 kts 239°
2026-05-05 17:16 47.54405 -62.68445 51036 ft 1137 kts 239°
2026-05-05 17:16 47.46365 -62.88610 51042 ft 1138 kts 239°
2026-05-05 17:17 47.38292 -63.08709 51036 ft 1138 kts 239°
2026-05-05 17:17 47.30185 -63.28743 51036 ft 1138 kts 239°
2026-05-05 17:18 47.22096 -63.48586 51041 ft 1138 kts 239°
2026-05-05 17:18 47.13916 -63.68507 51036 ft 1137 kts 239°
2026-05-05 17:19 47.05706 -63.88356 50790 ft 1140 kts 239°
2026-05-05 17:19 47.01565 -63.98313 50029 ft 1147 kts 238°
2026-05-05 17:19 46.97402 -64.08287 49279 ft 1139 kts 238°
2026-05-05 17:20 46.93333 -64.18000 48508 ft 1102 kts 238°
2026-05-05 17:20 46.89438 -64.27265 47748 ft 1066 kts 238°
2026-05-05 17:20 46.85614 -64.36334 46979 ft 1030 kts 238°
2026-05-05 17:20 46.81909 -64.45090 46213 ft 996 kts 238°
2026-05-05 17:21 46.78319 -64.53546 45447 ft 963 kts 238°
2026-05-05 17:21 46.74847 -64.61702 44678 ft 929 kts 238°
2026-05-05 17:21 46.71504 -64.69533 43914 ft 892 kts 238°
2026-05-05 17:22 46.65206 -64.84223 42375 ft 817 kts 238°
2026-05-05 17:22 46.62300 -64.90975 41616 ft 779 kts 238°
2026-05-05 17:22 46.59493 -64.97483 40846 ft 742 kts 238°
2026-05-05 17:22 46.56812 -65.03682 40076 ft 707 kts 238°
2026-05-05 17:23 46.54232 -65.09636 39315 ft 689 kts 238°
2026-05-05 17:23 46.51696 -65.15476 38561 ft 679 kts 238°
2026-05-05 17:23 46.49190 -65.21234 37810 ft 670 kts 238°
2026-05-05 17:23 46.46713 -65.26913 37061 ft 662 kts 238°
2026-05-05 17:24 46.44265 -65.32515 36319 ft 653 kts 238°
2026-05-05 17:24 46.41847 -65.38039 35558 ft 645 kts 238°
2026-05-05 17:24 46.39490 -65.43412 34801 ft 637 kts 237°
2026-05-05 17:24 46.37121 -65.48801 34059 ft 631 kts 237°
2026-05-05 17:25 46.34771 -65.54138 33302 ft 626 kts 237°
2026-05-05 17:25 46.33221 -65.57650 32801 ft 623 kts 237°
2026-05-05 17:25 46.30122 -65.64664 31793 ft 615 kts 237°
2026-05-05 17:25 46.27828 -65.69844 31031 ft 609 kts 237°
2026-05-05 17:26 46.25550 -65.74977 30274 ft 602 kts 237°
2026-05-05 17:26 46.23305 -65.80027 29517 ft 594 kts 237°
2026-05-05 17:26 46.21111 -65.84954 28765 ft 588 kts 237°
2026-05-05 17:26 46.18907 -65.89895 28021 ft 584 kts 237°
2026-05-05 17:27 46.16714 -65.94801 27257 ft 580 kts 237°
2026-05-05 17:27 46.14536 -65.99667 26485 ft 575 kts 237°
2026-05-05 17:27 46.12374 -66.04487 25724 ft 570 kts 237°
2026-05-05 17:27 46.10233 -66.09254 24961 ft 563 kts 237°
2026-05-05 17:28 46.08114 -66.13964 24197 ft 557 kts 237°
2026-05-05 17:28 46.06013 -66.18623 23435 ft 552 kts 237°
2026-05-05 17:28 46.03936 -66.23225 22683 ft 546 kts 237°
2026-05-05 17:28 46.01904 -66.27718 21922 ft 540 kts 237°
2026-05-05 17:29 45.99863 -66.32224 21150 ft 535 kts 237°
2026-05-05 17:29 45.97843 -66.36678 20400 ft 529 kts 237°
2026-05-05 17:29 45.95843 -66.41078 19636 ft 523 kts 237°
2026-05-05 17:29 45.93863 -66.45430 18873 ft 517 kts 237°
2026-05-05 17:30 45.91905 -66.49726 18116 ft 512 kts 237°
2026-05-05 17:30 45.89963 -66.53979 17355 ft 506 kts 237°
2026-05-05 17:30 45.88042 -66.58182 16584 ft 501 kts 237°
2026-05-05 17:30 45.86139 -66.62339 15836 ft 496 kts 237°
2026-05-05 17:31 45.84281 -66.66390 15384 ft 490 kts 237°
2026-05-05 17:31 45.82413 -66.70457 15189 ft 488 kts 237°
2026-05-05 17:31 45.80546 -66.74518 15110 ft 487 kts 237°
2026-05-05 17:31 45.78680 -66.78572 15077 ft 487 kts 237°
2026-05-05 17:32 45.76811 -66.82624 15063 ft 488 kts 237°
2026-05-05 17:32 45.74941 -66.86673 15052 ft 488 kts 237°
2026-05-05 17:32 45.73064 -66.90732 15036 ft 488 kts 237°
2026-05-05 17:32 45.71216 -66.94721 15049 ft 488 kts 236°
2026-05-05 17:33 45.69340 -66.98766 15034 ft 488 kts 236°
2026-05-05 17:33 45.67462 -67.02810 15038 ft 488 kts 236°
2026-05-05 17:33 45.65581 -67.06853 15035 ft 489 kts 236°
2026-05-05 17:33 45.63698 -67.10896 15036 ft 488 kts 236°
2026-05-05 17:34 45.61817 -67.14928 15052 ft 488 kts 236°
2026-05-05 17:34 45.59932 -67.18964 15034 ft 489 kts 236°
2026-05-05 17:34 45.58044 -67.23000 15035 ft 489 kts 236°
2026-05-05 17:34 45.56181 -67.26976 15075 ft 488 kts 236°
2026-05-05 17:35 45.54294 -67.30998 15099 ft 489 kts 236°
2026-05-05 17:35 45.52429 -67.34968 15115 ft 475 kts 236°
2026-05-05 17:35 45.50579 -67.38901 15115 ft 479 kts 236°
2026-05-05 17:35 45.48725 -67.42836 15115 ft 477 kts 236°
2026-05-05 17:36 45.46874 -67.46761 15118 ft 478 kts 236°
2026-05-05 17:36 45.45018 -67.50690 15117 ft 478 kts 236°
2026-05-05 17:36 45.43163 -67.54610 15116 ft 478 kts 236°
2026-05-05 17:36 45.41331 -67.58478 15117 ft 477 kts 236°
2026-05-05 17:37 45.39473 -67.62395 15118 ft 478 kts 236°
2026-05-05 17:37 45.38217 -67.65040 15118 ft 478 kts 236°
2026-05-05 17:37 45.35750 -67.70226 15113 ft 478 kts 236°
2026-05-05 17:37 45.33751 -67.73984 15115 ft 478 kts 225°
2026-05-05 17:38 45.31266 -67.77116 15137 ft 478 kts 221°
2026-05-05 17:38 45.28747 -67.80210 15131 ft 479 kts 220°
2026-05-05 17:38 45.26204 -67.83266 15140 ft 479 kts 220°
2026-05-05 17:38 45.23686 -67.86257 15138 ft 478 kts 220°
2026-05-05 17:39 45.21135 -67.89284 15130 ft 478 kts 220°
2026-05-05 17:39 45.18588 -67.92312 15130 ft 479 kts 220°
2026-05-05 17:39 45.16038 -67.95347 15131 ft 479 kts 220°
2026-05-05 17:39 45.13488 -67.98378 15129 ft 478 kts 220°
2026-05-05 17:40 45.10940 -68.01405 15133 ft 478 kts 220°
2026-05-05 17:40 45.08390 -68.04430 15130 ft 478 kts 220°
2026-05-05 17:40 45.05840 -68.07450 15126 ft 479 kts 220°
2026-05-05 17:40 45.03320 -68.10432 15132 ft 479 kts 220°
2026-05-05 17:41 45.00766 -68.13449 15125 ft 478 kts 220°
2026-05-05 17:41 44.98213 -68.16464 15120 ft 478 kts 220°
2026-05-05 17:41 44.95656 -68.19477 15120 ft 479 kts 220°
2026-05-05 17:41 44.93051 -68.22545 15122 ft 492 kts 220°
2026-05-05 17:42 44.90433 -68.25625 15234 ft 485 kts 220°
2026-05-05 17:42 44.87841 -68.28669 16022 ft 489 kts 220°
2026-05-05 17:42 44.85208 -68.31759 16791 ft 494 kts 220°
2026-05-05 17:42 44.82588 -68.34829 17545 ft 500 kts 220°
2026-05-05 17:43 44.79901 -68.37974 18308 ft 505 kts 220°
2026-05-05 17:43 44.77186 -68.41148 19067 ft 510 kts 220°
2026-05-05 17:43 44.74430 -68.44365 19665 ft 519 kts 220°
2026-05-05 17:43 44.71638 -68.47620 19920 ft 523 kts 220°
2026-05-05 17:44 44.68832 -68.50887 20034 ft 524 kts 220°
2026-05-05 17:44 44.66022 -68.54154 20076 ft 525 kts 220°
2026-05-05 17:44 44.63208 -68.57423 20098 ft 525 kts 220°
2026-05-05 17:44 44.60429 -68.60646 20109 ft 525 kts 220°
2026-05-05 17:45 44.57611 -68.63910 20115 ft 526 kts 219°
2026-05-05 17:45 44.54790 -68.67174 20118 ft 526 kts 219°
2026-05-05 17:45 44.51971 -68.70430 20110 ft 525 kts 219°
2026-05-05 17:45 44.49175 -68.73658 20625 ft 519 kts 219°
2026-05-05 17:46 44.46352 -68.76910 21400 ft 529 kts 219°
2026-05-05 17:46 44.43506 -68.80186 22165 ft 532 kts 219°
2026-05-05 17:46 44.40625 -68.83497 22931 ft 539 kts 219°
2026-05-05 17:46 44.37749 -68.86799 23682 ft 545 kts 219°
2026-05-05 17:47 44.34805 -68.90173 24443 ft 550 kts 219°
2026-05-05 17:47 44.31830 -68.93579 25203 ft 556 kts 219°
2026-05-05 17:47 44.28826 -68.97013 25959 ft 562 kts 219°
2026-05-05 17:47 44.25786 -69.00484 26721 ft 568 kts 219°
2026-05-05 17:48 44.22712 -69.03989 27473 ft 573 kts 219°
2026-05-05 17:48 44.19606 -69.07524 28247 ft 580 kts 219°
2026-05-05 17:48 44.16455 -69.11107 28756 ft 588 kts 219°
2026-05-05 17:48 44.13319 -69.14668 28973 ft 592 kts 219°
2026-05-05 17:49 44.10125 -69.18288 29044 ft 592 kts 219°
2026-05-05 17:49 44.03729 -69.25523 29103 ft 593 kts 219°
2026-05-05 17:50 43.97328 -69.32744 29117 ft 593 kts 219°
2026-05-05 17:50 43.90917 -69.39954 29117 ft 593 kts 219°
2026-05-05 17:51 43.84550 -69.47096 29115 ft 593 kts 219°
2026-05-05 17:51 43.78131 -69.54281 29113 ft 593 kts 220°
2026-05-05 17:51 43.75099 -69.58148 28960 ft 594 kts 221°
2026-05-05 17:52 43.71782 -69.61181 28190 ft 554 kts 204°
2026-05-05 17:52 43.68195 -69.62620 27459 ft 525 kts 186°
2026-05-05 17:52 43.64694 -69.62455 26777 ft 501 kts 167°
2026-05-05 17:52 43.61561 -69.60805 26096 ft 482 kts 147°
2026-05-05 17:53 43.59075 -69.57852 25401 ft 466 kts 127°
2026-05-05 17:53 43.57554 -69.54006 24697 ft 453 kts 105°
2026-05-05 17:53 43.57161 -69.49784 23990 ft 441 kts 84°
2026-05-05 17:53 43.57916 -69.45769 23258 ft 430 kts 62°
2026-05-05 17:54 43.59676 -69.42529 22539 ft 421 kts 39°
2026-05-05 17:54 43.62108 -69.40363 21788 ft 413 kts 26°
2026-05-05 17:54 43.64686 -69.38664 20972 ft 409 kts 24°
2026-05-05 17:54 43.67282 -69.37100 20160 ft 405 kts 22°
2026-05-05 17:55 43.69836 -69.35631 19358 ft 401 kts 19°
2026-05-05 17:55 43.72545 -69.34996 18591 ft 395 kts 355°
2026-05-05 17:55 43.75164 -69.35948 17857 ft 388 kts 330°
2026-05-05 17:55 43.77216 -69.38285 17127 ft 383 kts 305°
2026-05-05 17:56 43.78342 -69.41562 16408 ft 378 kts 280°
2026-05-05 17:56 43.78341 -69.45144 15678 ft 373 kts 255°
2026-05-05 17:56 43.77228 -69.48340 14945 ft 370 kts 229°
2026-05-05 17:56 43.75246 -69.50559 14204 ft 368 kts 208°
2026-05-05 17:57 43.72985 -69.52102 13420 ft 367 kts 204°
2026-05-05 17:57 43.70642 -69.53496 12620 ft 367 kts 202°
2026-05-05 17:57 43.68274 -69.54799 11841 ft 365 kts 202°
2026-05-05 17:57 43.65950 -69.56093 11443 ft 353 kts 202°
2026-05-05 17:58 43.63731 -69.57354 11270 ft 337 kts 202°
2026-05-05 17:58 43.61619 -69.58562 11188 ft 320 kts 202°
2026-05-05 17:58 43.59618 -69.59705 11153 ft 303 kts 202°
2026-05-05 17:58 43.57699 -69.60797 11140 ft 297 kts 202°
2026-05-05 17:59 43.55806 -69.61870 11140 ft 299 kts 202°
2026-05-05 17:59 43.53893 -69.62951 11141 ft 297 kts 202°
2026-05-05 17:59 43.51978 -69.64031 11143 ft 298 kts 202°
2026-05-05 17:59 43.50063 -69.65111 11142 ft 297 kts 202°
2026-05-05 18:00 43.48151 -69.66188 11142 ft 296 kts 202°
2026-05-05 18:00 43.46242 -69.67263 11141 ft 297 kts 202°
2026-05-05 18:00 43.44331 -69.68339 11140 ft 297 kts 202°
2026-05-05 18:00 43.42424 -69.69412 11141 ft 296 kts 202°
2026-05-05 18:01 43.40542 -69.70470 11141 ft 296 kts 202°
2026-05-05 18:01 43.38637 -69.71541 11143 ft 296 kts 202°
2026-05-05 18:01 43.36730 -69.72611 11142 ft 296 kts 202°
2026-05-05 18:01 43.34824 -69.73681 11140 ft 296 kts 202°
2026-05-05 18:02 43.32920 -69.74749 11148 ft 295 kts 202°
2026-05-05 18:02 43.31020 -69.75813 11142 ft 295 kts 202°
2026-05-05 18:02 43.29117 -69.76879 11141 ft 295 kts 202°
2026-05-05 18:02 43.27239 -69.77930 11141 ft 295 kts 202°
2026-05-05 18:03 43.25336 -69.78994 11142 ft 295 kts 202°
2026-05-05 18:03 43.23435 -69.80057 11143 ft 295 kts 202°
2026-05-05 18:03 43.21536 -69.81117 11140 ft 295 kts 202°
2026-05-05 18:03 43.19636 -69.82178 11139 ft 295 kts 202°
2026-05-05 18:04 43.17735 -69.83238 11140 ft 295 kts 202°
2026-05-05 18:04 43.15835 -69.84297 11143 ft 295 kts 202°
2026-05-05 18:04 43.13936 -69.85355 11140 ft 295 kts 202°
2026-05-05 18:04 43.12068 -69.86505 11144 ft 295 kts 206°
2026-05-05 18:05 43.10251 -69.87719 11129 ft 295 kts 206°
2026-05-05 18:05 43.08398 -69.88936 11109 ft 294 kts 204°
2026-05-05 18:05 43.06502 -69.89973 11115 ft 294 kts 204°
2026-05-05 18:05 43.04887 -69.91623 11131 ft 293 kts 236°
2026-05-05 18:06 43.04103 -69.94174 11177 ft 294 kts 256°
2026-05-05 18:06 43.03942 -69.95091 11161 ft 295 kts 257°
2026-05-05 18:06 43.03251 -69.99781 10005 ft 311 kts 259°
2026-05-05 18:06 43.02865 -70.02702 9508 ft 311 kts 260°
2026-05-05 18:07 43.02337 -70.05470 9295 ft 301 kts 241°
2026-05-05 18:07 43.01192 -70.07772 9226 ft 288 kts 232°
2026-05-05 18:07 42.99941 -70.09919 9183 ft 290 kts 231°
2026-05-05 18:07 42.98662 -70.12034 9160 ft 288 kts 230°
2026-05-05 18:08 42.97357 -70.14168 8566 ft 298 kts 231°
2026-05-05 18:08 42.96022 -70.16391 7818 ft 308 kts 225°
2026-05-05 18:08 42.94406 -70.18361 7079 ft 315 kts 223°
2026-05-05 18:08 42.92807 -70.20425 6545 ft 315 kts 224°
2026-05-05 18:09 42.91274 -70.22489 6317 ft 304 kts 226°
2026-05-05 18:09 42.89972 -70.24618 6205 ft 290 kts 238°
2026-05-05 18:09 42.89093 -70.27004 6173 ft 276 kts 248°
2026-05-05 18:09 42.88383 -70.29435 6153 ft 277 kts 249°
2026-05-05 18:10 42.87729 -70.31848 6136 ft 264 kts 250°
2026-05-05 18:10 42.87113 -70.34197 5850 ft 262 kts 251°
2026-05-05 18:10 42.86517 -70.36502 5715 ft 253 kts 251°
2026-05-05 18:10 42.85948 -70.38722 5656 ft 242 kts 251°
2026-05-05 18:11 42.85405 -70.40842 5635 ft 233 kts 251°
2026-05-05 18:11 42.84881 -70.42892 5638 ft 233 kts 251°
2026-05-05 18:11 42.84348 -70.44976 5643 ft 233 kts 251°
2026-05-05 18:11 42.83817 -70.47056 5642 ft 232 kts 251°
2026-05-05 18:12 42.83285 -70.49128 5641 ft 231 kts 249°
2026-05-05 18:12 42.82514 -70.51061 5435 ft 238 kts 236°
2026-05-05 18:12 42.81494 -70.52957 4725 ft 256 kts 232°
2026-05-05 18:12 42.80386 -70.54869 4392 ft 256 kts 231°
2026-05-05 18:13 42.79293 -70.56702 4249 ft 249 kts 231°
2026-05-05 18:13 42.78217 -70.58487 4183 ft 239 kts 231°
2026-05-05 18:13 42.77182 -70.60193 4152 ft 229 kts 231°
2026-05-05 18:13 42.76174 -70.61850 4138 ft 227 kts 231°
2026-05-05 18:14 42.75164 -70.63510 4112 ft 229 kts 230°
2026-05-05 18:14 42.74136 -70.65196 3823 ft 230 kts 231°
2026-05-05 18:14 42.73130 -70.66850 3718 ft 225 kts 231°
2026-05-05 18:14 42.72133 -70.68488 3666 ft 225 kts 231°
2026-05-05 18:15 42.71151 -70.70101 3650 ft 224 kts 231°
2026-05-05 18:15 42.70165 -70.71723 3643 ft 223 kts 231°
2026-05-05 18:15 42.69174 -70.73351 3640 ft 223 kts 231°
2026-05-05 18:15 42.68188 -70.74974 3609 ft 224 kts 231°
2026-05-05 18:16 42.67186 -70.76622 3325 ft 224 kts 231°
2026-05-05 18:16 42.66202 -70.78241 3218 ft 221 kts 231°
2026-05-05 18:16 42.65224 -70.79850 3188 ft 221 kts 231°
2026-05-05 18:16 42.64191 -70.81391 3160 ft 220 kts 224°
2026-05-05 18:17 42.63076 -70.82798 3148 ft 219 kts 222°
2026-05-05 18:17 42.61946 -70.84154 3137 ft 219 kts 221°
2026-05-05 18:17 42.60795 -70.85506 3148 ft 220 kts 221°
2026-05-05 18:17 42.59630 -70.86848 3154 ft 219 kts 218°
2026-05-05 18:18 42.58385 -70.88033 3136 ft 218 kts 213°
2026-05-05 18:18 42.57096 -70.89131 3143 ft 220 kts 212°
2026-05-05 18:18 42.55792 -70.90199 3132 ft 219 kts 211°
2026-05-05 18:18 42.54482 -70.91255 3145 ft 220 kts 210°
2026-05-05 18:19 42.53581 -70.91887 3038 ft 222 kts 205°
2026-05-05 18:19 42.51731 -70.93006 2779 ft 219 kts 204°
2026-05-05 18:19 42.50351 -70.93807 2630 ft 210 kts 203°
2026-05-05 18:19 42.48972 -70.94556 2197 ft 215 kts 201°
2026-05-05 18:20 42.47582 -70.95254 1689 ft 211 kts 201°
2026-05-05 18:20 42.46699 -70.95688 1680 ft 193 kts 201°
2026-05-05 18:20 42.44909 -70.96560 1871 ft 208 kts 199°
2026-05-05 18:20 42.43985 -70.96956 1743 ft 211 kts 197°
2026-05-05 18:21 42.42585 -70.97507 1475 ft 210 kts 198°
2026-05-05 18:21 42.40814 -70.98362 1004 ft 196 kts 201°
2026-05-05 18:21 42.39561 -70.99016 610 ft 189 kts 201°
2026-05-05 18:21 42.38324 -70.99613 237 ft 187 kts 200°
2026-05-05 18:22 42.37117 -71.00206 40 ft 178 kts 200°
2026-05-05 18:22 42.36384 -71.00559 34 ft 155 kts 200°
2026-05-05 18:22 42.35530 -71.00971 32 ft 55 kts 199°
2026-05-05 18:22 42.35380 -71.01071 32 ft 24 kts 231°
2026-05-05 18:23 42.35389 -71.01134 32 ft 7 kts 296°
2026-05-05 18:23 42.35413 -71.01224 32 ft 14 kts 288°
2026-05-05 18:23 42.35493 -71.01348 32 ft 15 kts
2026-05-05 18:23 42.35620 -71.01319 32 ft 22 kts
2026-05-05 18:24 42.35744 -71.01325 32 ft 12 kts 296°
2026-05-05 18:24 42.35767 -71.01410 32 ft 17 kts 290°
2026-05-05 18:24 42.35830 -71.01565 32 ft 18 kts 329°
2026-05-05 18:24 42.35882 -71.01570 32 ft 1 kts 316°
2026-05-05 18:25 42.35888 -71.01595 32 ft 5 kts 289°
2026-05-05 18:25 42.35893 -71.01634 32 ft 8 kts 281°
2026-05-05 18:25 42.35949 -71.01743 32 ft 7 kts 354°
2026-05-05 18:25 42.35964 -71.01745 32 ft 2 kts 354°
2026-05-05 18:26 42.35968 -71.01745 32 ft 0 kts 354°
2026-05-05 18:26 42.35976 -71.01747 32 ft 0 kts 353°